User: anonymous   Login
Location: Unspecified
(0.0000°N, 0.0000°E)
Time: 14:53:10
(UTC+00:00)
Language:

IDEFIX/ARIANE 42P - Orbit

View from above orbital plane
View from above orbital plane
View from above satellite
View from above satellite

Ground track
Ground track

The orbit data is extracted from the following two-line orbital elements,

1 27422U 02021B   20333.47683964 +.00000025 +00000-0 +26230-4 0  9994
2 27422 098.3747 287.9264 0013271 104.6599 255.6056 14.29300272968599
Epoch (UTC): 28 November 2020 11:26:38
Eccentricity: 0.0013271
inclination: 98.3747°
perigee height: 784 km
apogee height: 803 km
right ascension of ascending node: 287.9264°
argument of perigee: 104.6599°
revolutions per day: 14.29300272
mean anomaly at epoch: 255.6056°
orbit number at epoch: 96859

The dashed part of the orbit path shows where the satellite is in the earth's shadow,  

DLR